Wetbulb
70.75 70.89 70.94 70.64 70.67 70.69 70.13 70.13 70.04 70.05 69.42 68.37 67.39 66.94 66.50 66.65 67.32 67.80 67.61 66.74 65.44 66.25 66.35 65.77 65.64 66.43 65.01 64.31 64.35 65.81 65.85 65.01 61.97 63.93 65.78 66.01 66.55 67.27 67.92 67.54 66.52 65.67 62.32
70.37 70.24 69.94 69.82 69.88 69.59 69.23 69.39 69.18 68.10 67.67 66.67 66.24 65.73 65.82 66.46 67.19 66.75 66.11 66.07 64.83 64.05 65.61 65.24 64.86 65.43 65.87 66.33 67.60 66.22 65.94 67.24 65.52 61.52 60.89 61.15 63.32 66.12 65.48 64.23 64.09 64.01 63.19
69.60 69.23 69.05 69.10 69.09 68.69 68.36 68.10 67.54 66.84 66.14 65.92 65.95 65.73 65.52 66.14 66.49 67.11 66.15 65.42 63.17 64.84 65.58 65.34 65.08 65.73 65.70 65.96 66.60 65.77 65.66 66.79 66.46 61.18 58.35 59.62 60.07 62.14 61.16 61.36 61.34 60.84 60.70
68.20 68.03 67.73 68.10 68.13 67.83 67.35 66.81 66.18 65.96 65.83 65.93 66.06 65.57 65.82 66.17 66.94 67.00 65.27 66.05 65.96 65.84 66.31 66.36 65.91 65.98 65.94 65.80 65.53 65.88 66.46 65.95 63.71 60.18 57.83 58.43 57.83 59.20 58.91 56.97 56.43 58.43 57.69
66.01 66.06 66.37 67.05 67.25 66.74 66.07 65.89 66.07 65.79 65.64 66.05 66.13 65.79 66.50 67.00 65.78 66.60 66.15 66.10 63.68 65.00 66.13 66.33 66.89 64.29 60.29 63.29 65.37 65.41 65.18 62.95 60.80 58.56 57.05 57.11 56.17 56.45 55.99 57.45 56.59 56.89 56.95
64.89 65.10 65.87 66.00 66.01 66.06 66.17 66.07 65.51 65.52 66.10 66.09 65.91 65.22 65.98 65.13 49.40 49.94 58.25 64.19 65.53 64.96 65.12 65.45 65.90 61.85 59.42 55.53 55.95 57.48 62.35 63.83 61.37 58.79 56.55 55.43 55.85 55.61 56.71 56.63 55.91 54.83 53.39
64.94 65.27 65.43 65.36 65.06 65.31 64.99 65.05 64.92 65.80 66.17 66.23 66.02 65.06 65.58 66.10 47.88 48.35 52.88 63.42 63.46 63.76 63.13 63.31 63.48 62.47 61.50 62.47 53.52 53.07 53.63 53.04 58.36 62.09 57.49 57.39 57.06 58.29 57.71 56.82 56.45 55.23 55.28
64.77 64.65 65.21 63.92 63.69 63.91 63.80 64.46 65.66 65.66 66.22 66.39 65.72 65.72 66.01 63.15 48.71 48.17 51.79 63.58 62.06 61.68 62.90 63.33 63.52 62.43 61.79 62.65 62.43 61.83 62.08 62.82 62.63 62.00 60.25 59.02 58.61 58.60 60.09 57.44 57.66 55.57 56.32
64.02 64.32 64.16 64.12 63.68 64.09 63.25 64.77 65.65 65.67 65.53 66.10 65.77 65.69 65.95 64.03 48.17 48.35 57.27 61.77 60.48 59.57 60.11 61.87 62.89 61.80 49.82 50.29 62.43 60.13 59.00 57.66 51.47 51.45 50.65 48.27 47.04 48.78 54.66 58.30 55.06 54.01 53.06
63.59 64.18 64.73 64.33 63.34 63.54 64.39 64.82 65.77 65.91 65.27 65.20 65.37 66.20 58.13 63.60 46.88 48.89 56.95 61.60 60.15 59.55 60.36 60.38 51.72 56.15 44.91 48.82 61.49 59.63 56.80 57.20 56.91 55.20 54.14 50.95 53.27 51.80 50.99 57.18 56.10 53.80 54.86
65.54 65.27 64.99 65.02 64.44 64.83 65.42 65.79 65.11 65.27 65.00 65.33 65.09 65.65 64.09 61.94 58.94 48.35 51.43 61.32 60.10 58.62 57.64 57.44 55.81 44.72 44.54 46.72 52.70 60.68 56.69 57.18 53.76 56.37 56.04 55.79 56.01 57.01 58.40 59.24 59.50 59.84 58.11
65.00 64.95 65.24 65.61 64.95 64.88 65.08 65.53 65.24 65.19 64.93 64.96 64.60 64.19 62.94 63.37 49.29 47.88 47.99 52.66 54.42 60.05 57.98 57.22 50.33 43.46 44.00 46.34 52.99 44.71 45.96 52.47 56.99 56.17 55.53 55.33 56.04 57.84 59.77 62.11 63.96 63.32 63.84
64.95 65.10 65.37 65.64 65.21 65.64 65.66 65.94 65.48 66.10 64.44 64.31 63.74 62.44 61.76 60.76 56.65 44.49 45.09 46.72 50.29 59.06 58.75 47.95 42.88 42.73 43.27 45.89 44.71 45.63 48.22 57.32 56.74 56.09 56.05 57.04 58.77 60.68 62.86 62.38 63.54 63.84 63.45
64.92 65.19 66.14 65.50 64.88 65.87 65.81 65.82 66.16 65.89 64.34 64.04 63.26 62.48 62.28 60.14 59.11 58.41 57.42 57.08 50.40 54.96 49.25 52.28 50.90 51.58 50.69 52.59 53.47 52.90 60.77 60.43 59.15 59.70 59.80 60.75 61.94 61.78 61.14 61.89 61.16 61.27 60.63
65.38 65.49 65.78 64.98 65.45 65.38 66.12 64.43 66.13 66.06 62.10 64.66 64.32 63.99 62.62 60.08 59.81 56.01 57.19 59.09 60.69 56.33 58.37 59.54 59.30 58.85 58.19 58.32 58.88 59.86 62.17 61.08 61.30 61.69 61.38 61.16 61.03 61.64 62.02 62.47 61.48 59.92 58.49
65.09 64.91 64.44 65.35 65.20 64.75 64.55 63.39 42.90 44.38 43.77 45.63 46.32 56.90 62.80 52.16 45.45 43.82 44.91 43.44 45.09 45.99 59.38 60.02 60.00 60.02 59.66 60.68 60.77 61.11 62.41 59.64 61.66 61.94 62.16 62.19 61.44 60.98 60.98 61.46 61.23 59.65 58.63
64.78 65.19 64.74 62.84 64.90 63.79 64.68 64.17 62.87 55.68 42.48 41.61 43.40 42.73 48.28 47.62 42.37 41.82 42.73 42.91 43.82 47.35 59.61 60.62 60.29 60.40 60.22 60.53 61.59 61.59 61.79 62.35 64.02 63.51 62.91 62.82 62.67 62.54 60.46 60.54 60.26 59.78 59.15
65.87 53.63 64.45 64.39 65.02 63.96 63.68 64.03 63.79 63.69 62.60 62.36 45.62 45.57 41.21 40.92 40.74 40.56 42.01 46.69 55.94 55.68 59.59 60.33 61.48 62.32 62.74 63.03 62.99 63.42 63.27 63.67 63.66 63.53 63.27 63.08 62.55 61.57 60.07 60.06 60.42 60.44 60.38
65.58 64.79 65.16 64.93 65.21 63.20 63.59 64.41 63.65 63.86 63.86 63.74 60.93 51.27 43.50 38.48 38.89 40.92 44.72 59.95 59.60 60.29 61.68 60.91 61.93 62.21 63.08 63.70 63.77 64.02 64.23 64.11 63.42 63.27 62.90 62.51 62.38 61.85 60.72 60.38 60.81 51.28 54.23
65.34 54.15 57.62 65.36 65.51 65.30 64.46 62.52 63.62 63.67 63.80 64.47 64.04 62.53 56.82 54.03 57.36 55.75 61.11 61.20 62.27 62.67 62.40 62.54 62.60 63.21 63.86 64.35 64.50 64.50 64.41 63.65 63.82 63.81 63.50 63.15 62.67 62.23 61.66 61.75 61.76 61.09 61.07
64.24 64.88 53.84 65.63 65.10 65.16 64.79 63.99 62.69 62.49 62.83 63.15 64.69 62.44 48.91 63.94 63.63 62.72 63.07 64.56 64.36 64.49 64.47 65.00 64.99 65.16 65.05 64.74 64.95 64.67 64.10 64.56 64.41 64.29 64.40 64.12 63.97 62.96 63.42 63.13 62.80 62.76 62.69
64.77 64.38 64.26 63.76 64.43 64.88 65.22 65.53 65.07 63.69 62.80 62.39 63.61 59.95 40.67 62.53 64.79 64.55 64.62 64.92 65.71 66.18 66.29 65.91 65.29 65.30 65.47 65.58 65.57 65.30 64.71 63.89 64.34 64.95 64.76 64.71 64.68 64.42 64.39 64.09 63.78 63.49 63.39
65.28 64.82 64.41 64.17 64.63 58.18 64.67 65.40 65.26 65.27 64.63 64.12 64.19 63.06 62.19 64.13 65.34 65.56 66.03 66.25 66.43 66.42 66.48 66.27 66.17 65.91 66.37 66.34 66.16 65.79 65.11 65.23 65.63 65.91 65.41 65.17 64.76 64.73 64.70 64.16 63.91 63.53 63.19
63.42 63.29 63.68 65.02 65.69 64.87 65.24 65.56 66.05 56.11 64.59 65.59 65.38 64.93 64.09 64.31 65.14 65.76 66.70 67.67 67.44 67.53 67.50 67.33 67.08 66.59 66.34 66.41 66.70 66.84 66.77 66.73 66.33 65.46 65.93 65.48 65.21 63.29 64.79 64.49 63.86 63.45 63.11
54.89 54.72 54.56 55.76 56.07 57.38 60.54 61.46 62.32 63.41 63.16 63.93 64.59 66.08 67.41 67.27 67.09 66.63 66.37 66.38 66.34 66.62 66.80 67.38 67.49 67.48 67.51 67.23 67.40 67.19 59.25 41.24 60.12 50.81 66.30 65.70 65.01 64.72 63.87 63.47 63.30 63.03 63.25
49.44 48.00 48.41 48.54 49.40 50.24 49.47 49.35 49.88 50.54 49.95 50.75 51.77 53.81 54.93 55.26 56.74 57.66 57.00 58.86 61.98 64.38 65.35 65.97 66.30 65.96 65.37 60.25 49.51 38.92 36.56 37.31 50.09 39.29 61.52 64.86 64.26 64.22 64.21 63.81 63.65 62.86 62.96
MSLP
998.05 998.63 999.12 999.56 1000.12 1000.71 1001.31 1001.96 1002.59 1003.17 1003.68 1004.14 1004.59 1005.00 1005.33 1005.68 1006.03 1006.42 1006.59 1006.81 1007.00 1007.15 1007.22 1007.46 1007.66 1007.93 1007.73 1007.98 1008.29 1008.90 1009.42 1009.69 1009.78 1010.61 1010.85 1011.42 1011.55 1011.73 1011.99 1012.63 1013.09 1013.64 1014.64
998.51 999.06 999.70 1000.17 1000.71 1001.27 1001.80 1002.41 1002.95 1003.42 1003.79 1004.16 1004.52 1004.78 1005.07 1005.35 1005.84 1006.00 1006.02 1006.13 1006.65 1007.01 1006.90 1007.11 1007.27 1007.49 1007.62 1007.93 1008.33 1008.50 1008.78 1009.24 1009.46 1010.34 1011.70 1012.14 1012.22 1012.38 1012.80 1013.24 1013.65 1014.31 1014.97
998.97 999.67 1000.29 1000.78 1001.27 1001.78 1002.31 1002.79 1003.21 1003.62 1003.93 1004.21 1004.49 1004.61 1004.80 1005.07 1005.40 1005.61 1005.77 1006.13 1006.87 1006.80 1006.67 1006.63 1006.84 1007.25 1007.50 1007.92 1008.26 1008.41 1008.64 1009.19 1009.70 1010.69 1011.87 1012.54 1012.97 1013.11 1013.49 1014.00 1014.43 1015.08 1015.89
999.26 1000.01 1000.63 1001.20 1001.72 1002.23 1002.71 1003.14 1003.48 1003.76 1004.00 1004.30 1004.46 1004.49 1004.83 1005.13 1005.31 1005.61 1006.14 1005.99 1006.19 1006.32 1006.32 1006.25 1006.53 1006.78 1007.17 1007.85 1008.19 1008.30 1008.66 1009.26 1009.90 1011.14 1012.13 1012.73 1013.26 1013.77 1014.02 1014.41 1015.40 1016.00 1016.68
999.63 1000.32 1001.01 1001.62 1002.12 1002.56 1002.94 1003.32 1003.64 1003.92 1004.06 1004.15 1004.41 1004.84 1005.08 1005.24 1005.62 1005.86 1005.86 1006.00 1006.53 1006.40 1006.49 1006.33 1006.52 1006.97 1007.38 1008.18 1008.15 1008.50 1008.83 1009.49 1010.35 1011.37 1012.22 1012.96 1013.60 1013.96 1014.35 1014.99 1015.59 1016.54 1017.57
1000.05 1000.67 1001.31 1001.79 1002.28 1002.81 1003.22 1003.54 1003.86 1004.02 1004.10 1004.31 1004.56 1004.84 1005.23 1005.36 1006.83 1006.89 1006.78 1006.55 1006.38 1006.54 1006.58 1006.61 1007.33 1007.91 1008.38 1008.82 1008.94 1009.04 1009.21 1009.58 1010.33 1011.18 1012.16 1012.87 1013.63 1014.09 1014.75 1015.20 1015.88 1016.61 1017.83
1000.27 1000.82 1001.36 1001.93 1002.36 1002.91 1003.30 1003.66 1003.94 1004.22 1004.59 1004.83 1004.96 1005.17 1005.46 1006.04 1007.09 1007.24 1007.18 1007.06 1006.90 1007.03 1007.22 1007.47 1007.66 1008.25 1008.67 1009.07 1009.52 1009.73 1010.05 1010.15 1010.55 1011.15 1012.06 1012.79 1013.48 1014.01 1014.46 1015.47 1016.28 1016.85 1017.71
1000.24 1000.71 1001.41 1001.82 1002.46 1002.88 1003.35 1003.70 1004.21 1004.52 1004.96 1005.19 1005.25 1005.47 1005.74 1006.79 1007.37 1007.48 1007.37 1007.29 1007.59 1007.77 1007.74 1007.82 1007.95 1008.57 1008.82 1009.09 1009.53 1009.93 1010.39 1010.89 1011.32 1011.63 1012.63 1013.35 1014.00 1014.55 1014.90 1015.60 1016.34 1017.37 1018.41
1000.12 1000.83 1001.32 1001.79 1002.36 1002.88 1003.32 1003.96 1004.35 1004.81 1005.11 1005.32 1005.32 1005.59 1006.03 1006.91 1007.75 1007.74 1007.67 1007.82 1008.02 1008.32 1008.54 1008.50 1008.60 1008.85 1009.39 1009.48 1009.44 1010.20 1011.01 1011.85 1012.11 1012.41 1013.24 1014.07 1014.76 1015.18 1015.27 1015.79 1016.92 1017.54 1018.46
1000.25 1000.82 1001.25 1001.85 1002.50 1002.94 1003.52 1004.04 1004.47 1004.89 1005.14 1005.08 1005.54 1006.02 1006.94 1007.10 1007.92 1007.95 1007.89 1008.09 1008.36 1008.76 1008.98 1009.24 1009.54 1009.71 1009.99 1010.09 1010.26 1010.83 1011.54 1012.23 1012.87 1013.81 1014.61 1015.23 1015.46 1015.98 1016.09 1016.32 1016.68 1017.38 1017.94
1000.12 1000.83 1001.47 1002.08 1002.65 1003.17 1003.78 1004.28 1004.67 1004.87 1004.94 1005.40 1005.71 1006.23 1007.00 1007.39 1008.09 1008.23 1008.34 1008.33 1008.61 1009.00 1009.43 1009.83 1010.26 1010.47 1010.73 1010.79 1010.93 1011.32 1012.14 1012.77 1013.50 1014.07 1014.80 1015.46 1016.05 1016.32 1016.51 1016.75 1016.94 1016.98 1017.28
1000.45 1001.04 1001.75 1002.45 1002.64 1003.53 1004.14 1004.53 1004.69 1004.89 1005.30 1005.57 1005.86 1006.28 1007.22 1007.75 1008.33 1008.55 1008.64 1008.61 1008.94 1009.03 1009.77 1010.35 1010.89 1011.02 1011.24 1011.51 1011.65 1012.32 1012.84 1013.29 1013.81 1014.33 1014.95 1015.49 1015.97 1016.22 1016.42 1016.27 1016.45 1016.52 1016.57
1000.64 1001.31 1001.94 1002.51 1002.84 1003.52 1004.20 1004.54 1004.79 1005.11 1005.23 1005.53 1005.47 1005.98 1007.25 1008.10 1008.75 1008.97 1009.16 1009.19 1009.35 1009.58 1010.32 1011.01 1011.31 1011.46 1011.69 1012.10 1012.47 1012.93 1013.23 1013.59 1013.98 1014.36 1014.81 1015.23 1015.43 1015.70 1015.87 1016.47 1016.70 1016.84 1017.06
1000.93 1001.46 1002.08 1002.45 1002.94 1003.63 1004.11 1004.47 1004.75 1005.04 1005.28 1005.26 1005.32 1005.79 1007.05 1008.21 1008.80 1009.32 1009.66 1009.78 1010.02 1010.54 1011.23 1011.58 1011.69 1011.74 1011.94 1012.53 1012.94 1013.11 1012.88 1013.22 1013.45 1013.72 1014.19 1014.67 1015.16 1015.68 1015.94 1016.24 1016.50 1016.73 1016.20
1000.93 1001.71 1002.00 1002.63 1002.86 1003.88 1004.32 1005.28 1005.09 1005.27 1005.77 1005.58 1005.51 1005.46 1006.86 1008.05 1008.72 1009.11 1009.52 1009.83 1009.86 1010.47 1010.91 1011.34 1011.52 1011.82 1012.28 1012.60 1012.70 1012.76 1012.54 1012.86 1012.92 1013.32 1013.74 1014.26 1014.71 1014.87 1014.96 1015.31 1015.48 1015.91 1015.72
1000.71 1001.16 1001.45 1002.06 1002.64 1003.12 1004.10 1005.35 1006.22 1006.43 1006.45 1006.24 1006.23 1006.12 1006.69 1007.43 1008.78 1009.35 1009.75 1010.07 1010.43 1010.81 1010.62 1010.51 1010.88 1011.36 1011.65 1011.68 1011.79 1012.10 1012.14 1012.73 1012.97 1013.16 1013.31 1013.43 1013.70 1014.03 1014.27 1014.76 1014.85 1015.05 1015.23
1000.34 1000.84 1001.50 1001.68 1002.10 1002.72 1003.40 1004.26 1005.48 1007.01 1007.22 1007.27 1007.36 1007.38 1007.42 1008.44 1009.21 1009.76 1010.05 1010.46 1010.76 1010.89 1010.57 1010.38 1010.57 1010.92 1011.09 1011.18 1011.09 1011.36 1011.56 1012.20 1012.18 1012.24 1012.53 1012.80 1013.10 1013.41 1014.03 1014.24 1014.37 1014.57 1014.69
1000.46 1001.08 1001.11 1001.17 1001.64 1002.24 1002.92 1003.27 1003.92 1005.22 1006.07 1007.18 1008.27 1008.43 1008.82 1009.18 1009.58 1009.96 1010.46 1010.98 1011.31 1011.07 1010.77 1010.56 1010.50 1010.37 1010.32 1010.40 1010.56 1010.55 1010.95 1011.44 1011.74 1011.82 1012.18 1012.53 1012.87 1013.14 1013.63 1013.64 1013.77 1013.91 1013.97
1000.52 1000.83 1000.79 1001.12 1001.44 1001.90 1002.66 1002.92 1003.28 1003.89 1005.05 1006.03 1007.74 1008.93 1009.75 1010.09 1010.31 1010.40 1010.46 1010.36 1010.46 1010.33 1010.07 1010.26 1009.95 1009.96 1010.04 1010.28 1010.45 1010.49 1010.68 1011.00 1011.46 1011.71 1012.00 1012.30 1012.61 1012.80 1012.93 1013.15 1013.08 1013.39 1013.52
1000.76 1001.19 1001.17 1001.22 1001.76 1002.08 1002.39 1002.69 1003.02 1003.62 1004.21 1005.06 1006.04 1007.54 1009.22 1009.91 1010.21 1010.51 1009.91 1009.50 1009.46 1009.44 1009.64 1009.72 1009.95 1010.05 1009.90 1009.93 1010.09 1010.38 1010.45 1010.98 1011.39 1011.48 1011.59 1011.86 1012.14 1012.35 1012.31 1012.41 1012.51 1012.56 1012.86
1000.34 1001.46 1001.59 1001.40 1001.61 1001.86 1002.05 1002.34 1002.85 1003.30 1003.71 1004.38 1005.14 1006.92 1007.77 1008.20 1008.27 1008.71 1008.56 1008.12 1008.04 1007.98 1008.09 1008.19 1008.56 1008.99 1009.29 1009.67 1009.77 1009.93 1010.37 1010.43 1010.75 1011.01 1011.08 1011.31 1011.53 1011.65 1011.83 1011.76 1011.78 1011.88 1011.85
1000.54 1000.88 1001.41 1001.28 1001.56 1002.04 1002.20 1002.45 1002.72 1003.13 1003.50 1004.03 1004.82 1007.19 1007.79 1007.88 1006.91 1007.19 1007.29 1007.19 1007.24 1007.33 1007.48 1007.92 1007.95 1008.25 1008.46 1008.70 1009.05 1009.31 1009.69 1010.11 1010.27 1010.23 1010.37 1010.52 1010.64 1010.83 1010.94 1010.92 1011.00 1011.03 1011.05
1001.66 1001.25 1001.43 1001.53 1001.91 1002.66 1002.98 1002.78 1002.93 1003.18 1003.39 1003.89 1004.41 1006.37 1007.60 1007.11 1006.09 1005.90 1006.14 1006.61 1006.92 1007.04 1007.17 1007.41 1007.70 1007.76 1008.00 1008.22 1008.39 1008.69 1008.85 1009.08 1009.35 1009.59 1009.62 1009.79 1009.89 1009.93 1010.01 1010.04 1010.08 1010.04 1010.03
1002.93 1002.83 1002.84 1002.73 1002.54 1002.75 1002.95 1003.33 1003.52 1004.18 1003.98 1003.92 1004.65 1005.09 1006.02 1006.30 1006.05 1005.84 1005.93 1006.06 1006.41 1006.73 1007.00 1007.14 1007.34 1007.42 1007.49 1007.74 1007.90 1008.19 1008.29 1008.34 1008.39 1008.46 1008.84 1008.85 1008.89 1008.94 1009.13 1008.92 1008.89 1008.92 1009.01
1005.99 1005.99 1006.16 1006.39 1006.41 1006.18 1005.61 1005.50 1005.49 1005.50 1005.69 1005.79 1005.80 1005.98 1006.00 1006.20 1006.13 1006.18 1006.40 1006.54 1006.64 1006.72 1006.87 1007.03 1007.16 1007.20 1007.41 1007.59 1007.51 1007.40 1007.60 1008.28 1008.51 1008.50 1008.13 1008.23 1008.32 1008.28 1008.06 1007.77 1007.82 1007.88 1007.81
1008.12 1007.96 1008.44 1008.65 1008.59 1008.75 1008.97 1009.11 1009.26 1009.40 1009.72 1009.82 1009.77 1009.68 1009.48 1009.48 1009.42 1009.49 1009.74 1009.41 1008.60 1007.86 1007.66 1007.52 1007.43 1007.37 1007.70 1008.83 1010.12 1010.03 1009.30 1009.26 1009.19 1009.24 1008.83 1008.35 1007.96 1007.38 1007.18 1007.07 1007.06 1006.98 1006.68
Wind_Speed
14 14 14 14 14 13 13 13 12 12 11 10 10 10 9 8 8 7 7 7 9 7 7 7 8 8 7 8 8 7 6 5 7 5 5 4 6 8 8 8 9 10 11
14 15 14 14 14 13 13 12 11 11 10 10 10 9 8 8 8 8 9 8 5 7 9 8 8 7 8 5 5 7 6 6 5 10 4 2 4 8 8 9 7 7 11
15 15 14 14 13 13 12 11 10 10 10 10 9 8 6 6 6 6 4 6 4 8 10 9 8 9 9 7 7 7 5 6 5 8 4 2 3 4 7 8 9 10 8
15 14 13 12 12 11 11 11 10 10 10 8 6 6 4 5 1 3 6 6 7 7 8 8 8 9 9 8 7 7 7 7 9 8 5 4 3 4 7 10 9 9 11
14 13 12 11 11 11 11 11 10 9 9 8 6 5 4 3 2 2 3 6 5 4 6 7 7 3 6 7 5 7 6 8 9 10 6 5 6 5 9 7 11 10 10
14 13 12 11 11 11 10 10 10 9 8 8 6 5 4 4 5 5 7 4 6 6 5 4 7 8 8 4 4 4 8 11 12 10 7 9 8 9 9 10 12 12 7
13 12 11 11 11 11 10 10 10 8 8 7 6 5 4 6 5 2 4 4 2 4 5 7 7 6 9 9 8 10 10 10 10 11 12 12 13 13 13 13 13 10 8
12 10 9 10 11 10 10 11 8 8 7 6 5 5 5 6 5 2 0 6 6 5 4 7 8 9 8 11 12 11 11 11 12 10 11 10 10 11 13 12 11 10 10
11 10 9 10 10 11 11 10 7 7 5 6 5 4 6 7 4 3 5 7 6 6 5 4 8 6 9 9 12 11 11 8 11 14 14 15 13 11 10 14 11 11 9
10 10 10 11 11 11 11 9 7 7 6 5 6 6 6 6 4 4 5 4 7 6 4 7 5 6 7 7 12 11 10 10 13 13 12 13 12 9 10 9 11 11 9
10 11 10 10 10 9 8 6 7 7 7 6 6 6 5 4 6 4 5 5 6 6 5 4 4 9 9 7 11 11 11 12 13 12 10 10 10 7 6 8 11 11 11
11 12 11 10 8 8 8 7 8 7 7 7 6 6 5 5 8 6 6 9 7 8 7 5 4 10 10 11 9 15 14 12 9 9 9 10 9 9 10 9 8 8 3
12 12 10 9 7 7 6 7 7 7 6 7 6 6 6 4 4 6 8 10 9 10 7 8 9 11 12 12 16 16 12 9 9 9 9 9 11 10 11 8 5 6 3
12 10 9 7 7 5 6 5 5 6 5 6 5 6 7 5 5 6 6 9 12 10 11 6 6 8 10 11 12 11 8 10 11 11 10 10 10 9 9 9 9 8 7
13 9 9 6 6 6 5 5 3 5 3 2 5 6 8 6 6 9 8 7 10 10 11 10 9 9 10 10 7 6 8 9 10 10 10 10 10 10 10 9 8 9 7
11 10 7 8 7 6 7 7 13 11 11 11 12 7 7 13 13 10 11 11 15 12 8 9 10 10 10 9 8 10 9 9 8 9 10 10 10 10 9 9 8 9 8
10 10 8 5 6 5 6 7 7 6 12 13 11 11 9 13 12 11 13 14 14 8 7 8 9 10 9 6 7 9 9 9 11 10 9 10 9 9 8 9 8 8 8
10 5 8 6 6 7 5 7 7 8 7 7 12 10 9 12 13 14 15 10 6 4 6 6 8 8 7 8 9 8 8 8 8 8 8 8 8 8 9 8 9 9 9
8 8 5 6 5 6 6 5 5 7 9 9 8 6 9 11 9 9 14 9 8 6 6 8 7 7 7 7 6 7 9 9 9 9 9 9 9 8 9 10 9 9 9
6 10 1 5 7 6 6 6 5 6 6 8 8 9 8 6 7 7 8 6 9 8 8 8 7 7 7 7 8 8 7 7 9 9 9 9 9 9 10 10 10 10 12
7 8 1 5 6 6 6 5 6 6 5 6 7 11 13 10 10 11 10 10 9 9 8 8 9 10 10 10 9 8 9 9 10 10 10 10 10 10 11 11 11 12 12
4 7 7 7 6 5 4 5 5 5 5 6 7 9 9 9 8 8 8 7 7 7 7 7 7 7 7 9 10 10 11 12 12 12 12 12 12 12 12 12 13 13 13
1 4 5 5 5 5 5 5 5 5 5 5 6 10 9 8 5 6 7 7 7 6 7 7 8 8 8 8 9 10 11 11 11 12 12 12 12 12 12 13 14 14 14
9 7 4 2 2 5 5 4 3 3 4 4 6 5 7 6 5 4 4 3 5 5 6 6 7 9 8 9 9 10 10 11 10 11 15 13 13 14 14 14 15 17 16
11 11 11 11 12 12 12 13 12 12 10 10 7 3 1 1 1 2 3 3 4 4 5 5 6 8 10 12 13 13 10 5 11 10 10 14 16 18 16 15 16 16 18
12 13 11 10 10 10 10 11 11 12 12 12 12 12 13 13 12 13 13 14 13 11 9 6 6 6 8 15 19 16 15 11 8 6 10 14 16 15 15 18 23 17 19
Wind_Direction
116 114 118 117 121 125 124 126 127 129 137 144 149 156 164 171 183 193 205 205 211 205 221 205 205 190 204 183 205 181 186 202 165 119 106 115 129 143 122 108 136 136 134
118 114 115 120 121 122 122 122 132 135 143 144 150 157 165 179 187 209 218 216 206 216 210 201 198 188 195 187 212 203 193 173 181 147 106 71 67 111 115 114 111 123 138
120 121 122 123 124 125 126 131 133 137 140 146 152 164 175 192 209 227 243 200 202 244 213 193 201 187 191 197 191 203 193 162 141 135 109 80 68 102 91 85 100 100 107
123 123 123 126 128 130 132 136 140 143 147 152 167 164 157 196 225 220 200 210 214 209 198 198 203 189 188 181 199 193 182 152 124 124 109 110 96 97 106 116 104 109 108
124 124 125 129 133 138 139 142 142 150 157 157 151 135 165 144 101 310 188 168 166 229 196 199 196 139 114 166 182 191 169 138 138 136 123 118 127 130 129 126 114 116 108
126 125 130 135 137 140 144 145 151 148 155 141 129 119 112 79 59 352 325 146 191 200 201 157 109 106 98 82 49 170 146 166 154 145 139 142 136 127 134 131 127 125 122
132 135 136 142 143 146 151 155 154 154 142 145 118 115 87 71 58 31 302 95 133 140 141 145 147 120 153 147 101 99 78 57 138 153 147 151 144 148 138 136 136 130 120
140 136 139 151 142 146 150 148 151 140 155 128 128 96 75 72 61 96 189 111 100 96 114 146 135 146 156 151 151 144 143 140 140 147 143 134 133 140 140 131 116 103 106
143 136 154 138 148 149 153 149 147 148 148 148 114 99 78 90 78 83 86 115 94 92 85 101 134 147 139 169 144 125 110 85 61 97 108 107 105 103 126 126 125 133 126
142 150 144 143 137 146 151 162 147 157 164 148 115 87 67 110 96 89 122 103 115 118 109 129 140 116 135 155 131 132 117 124 115 109 105 97 105 101 93 115 136 139 142
138 136 142 140 145 146 153 146 163 185 144 136 126 95 97 95 103 86 115 122 120 115 113 116 113 117 110 104 127 134 123 122 117 122 120 117 120 124 125 153 163 165 170
137 142 133 137 152 142 164 169 177 172 168 160 149 134 103 98 45 71 79 95 127 117 112 108 105 113 107 113 114 114 116 121 123 124 129 133 142 154 160 166 164 171 165
134 132 137 151 140 136 166 170 164 176 178 181 178 134 124 105 78 79 93 101 104 110 107 97 112 102 99 92 120 131 141 131 135 138 144 150 155 153 152 145 142 127 106
130 134 134 147 136 156 159 166 154 173 167 190 163 135 117 120 118 120 117 112 99 99 106 113 109 103 98 120 146 164 158 148 152 150 148 146 147 156 164 170 176 187 155
145 143 145 141 154 144 94 48 106 89 30 241 142 142 134 144 148 143 139 141 139 124 136 148 134 126 132 158 162 189 152 153 150 150 150 154 164 172 175 176 182 181 208
154 160 152 151 150 148 138 123 51 45 37 31 38 36 82 109 120 109 122 115 119 155 153 148 141 147 164 166 170 153 164 150 165 162 165 172 167 178 171 180 191 191 205
171 143 150 160 143 147 156 142 128 81 70 47 33 38 80 123 119 122 127 134 149 180 157 158 155 165 168 174 167 163 165 168 174 166 171 179 178 187 173 188 199 200 208
155 143 157 162 155 146 173 158 135 146 140 132 59 46 74 120 131 129 129 129 156 212 167 173 177 182 176 176 176 172 163 164 185 175 178 185 190 195 190 209 205 210 216
163 165 193 149 162 114 146 173 153 134 134 123 128 101 80 75 78 131 160 156 176 182 189 189 203 189 186 184 193 188 183 181 188 188 190 192 195 205 203 212 219 218 225
136 58 3 158 138 178 153 159 147 140 140 143 156 138 139 151 151 165 194 185 187 193 188 198 195 206 202 215 192 200 207 176 193 204 206 204 206 213 222 218 225 229 214
168 143 308 185 158 192 173 161 154 165 164 154 150 141 162 184 169 175 197 192 198 192 192 194 184 194 197 199 209 207 207 219 209 212 218 217 219 223 226 233 234 231 240
198 153 182 195 167 174 181 182 175 173 173 168 143 133 169 234 169 176 195 205 207 214 195 201 208 200 206 201 206 206 210 212 221 218 220 228 225 227 233 233 237 240 245
173 182 178 177 167 109 175 193 189 201 186 176 160 134 182 219 245 184 183 194 208 216 211 208 218 221 213 213 214 217 218 218 221 226 229 230 233 235 236 238 242 244 244
48 68 53 42 93 178 157 169 152 42 328 195 168 158 164 199 223 257 277 227 213 216 226 229 230 238 234 225 224 231 234 237 236 231 232 239 238 234 241 246 242 244 251
51 47 48 42 40 34 33 36 35 33 36 28 27 40 101 143 242 309 322 304 288 272 251 250 252 252 248 259 268 260 253 220 246 284 269 241 246 254 254 250 243 251 254
60 59 45 40 48 54 55 54 51 51 49 43 41 40 38 35 35 32 21 16 4 357 356 345 341 327 355 32 22 15 19 12 329 301 274 267 272 266 252 252 257 259 258